Location: Pine Mountain Observatory
(43.7910°N, 120.9377°W)
Time: 10:01:43
(UTC-07:00)

APEX - Visible Passes

Search period start: 01 July 2016 00:00
Search period end: 11 July 2016 00:00
Orbit: 335 x 1235 km, 69.9° (Epoch: 01 July)

Date Brightness Start Highest point End Pass type
(mag) Time Alt. Az. Time Alt. Az. Time Alt. Az.
01 Jul 4.7 03:33:45 14° SSE 03:35:28 22° ESE 03:38:12 10° NE visible
02 Jul 5.2 03:02:21 11° SE 03:03:31 13° E 03:05:12 10° ENE visible
02 Jul 4.2 04:43:08 10° WSW 04:45:54 29° NW 04:49:12 10° N visible
03 Jul 3.3 04:11:31 18° SW 04:13:34 48° WNW 04:17:11 10° NNE visible
04 Jul 2.7 03:40:01 34° SSW 03:41:18 87° WNW 03:45:02 10° NNE visible
05 Jul 3.2 03:08:30 43° SSE 03:09:07 51° ESE 03:12:45 10° NE visible
05 Jul 5.4 04:51:02 10° WNW 04:52:37 13° NW 04:54:22 10° NNW visible
06 Jul 4.2 02:36:56 29° ESE 02:37:02 29° ESE 02:40:16 10° NE visible
06 Jul 5.1 04:17:39 10° W 04:20:04 18° NW 04:22:53 10° N visible
07 Jul 5.1 02:05:21 17° E 02:05:21 17° E 02:07:30 10° ENE visible
07 Jul 4.5 03:45:57 19° W 03:47:35 27° NW 03:51:02 10° N visible
08 Jul 3.7 03:14:19 35° W 03:15:09 42° WNW 03:19:01 10° NNE visible
09 Jul 2.9 02:42:40 71° W 02:42:48 73° WNW 02:46:51 10° NNE visible
10 Jul 3.4 02:10:59 58° ENE 02:10:59 58° ENE 02:14:34 10° NNE visible
10 Jul 5.7 03:52:35 10° WNW 03:54:15 12° NW 03:56:06 10° NNW visible
